FW5461 Weather Reports


Display with metric or nautical units.
time (UTC)temp
F
wind
direction
speed
MPH
gust
MPH
rain 1hr
in
rain 24hr
in
rain mn
in
humidity
%
barometer
mb
20201127081543 40 90 1.0 3.0 0.00 0.74 0.00 98 1019.7
20201127081014 40 34 0.0 2.0 0.00 0.74 0.00 98 1019.8
20201127080517 41 323 0.0 1.0 0.00 0.74 0.00 98 1019.7
20201127080058 41 315 0.0 1.0 0.00 0.74 0.00 98 1019.7
20201127075517 40 315 0.0 3.0 0.00 0.76 0.00 98 1019.7
20201127075022 40 306 0.0 3.0 0.00 0.76 0.00 98 1019.7
20201127074538 39 311 1.0 3.0 0.00 0.76 0.00 97 1019.7
20201127074014 39 309 1.0 3.0 0.00 0.76 0.00 97 1019.6
20201127073518 39 311 1.0 3.0 0.00 0.76 0.00 97 1019.7
20201127073059 39 325 0.0 2.0 0.00 0.76 0.00 97 1019.9
20201127072021 40 275 1.0 3.0 0.00 0.76 0.00 98 1019.9
20201127071533 39 281 1.0 2.0 0.00 0.76 0.00 97 1019.9
20201127071020 39 188 0.0 4.0 0.00 0.76 0.00 97 1020.0
20201127070518 39 169 2.0 4.0 0.00 0.76 0.00 97 1019.8
20201127070024 39 134 3.0 5.0 0.00 0.76 0.00 97 1019.9
20201127065516 39 198 0.0 3.0 0.00 0.76 0.00 97 1019.6
20201127065023 39 272 1.0 3.0 0.00 0.76 0.00 97 1019.6
20201127064524 39 284 0.0 3.0 0.00 0.76 0.00 97 1019.5
20201127064025 39 217 2.0 3.0 0.00 0.76 0.00 97 1019.6
20201127063517 39 295 1.0 3.0 0.00 0.76 0.00 97 1019.6
20201127063037 39 301 0.0 3.0 0.00 0.76 0.00 97 1019.6
20201127062512 39 289 0.0 3.0 0.00 0.76 0.00 97 1019.7
20201127062021 39 223 1.0 2.0 0.00 0.76 0.00 97 1019.7
20201127061514 39 224 1.0 2.0 0.00 0.76 0.00 97 1019.7
20201127061015 39 246 0.0 2.0 0.00 0.76 0.00 97 1019.6
20201127060508 39 212 1.0 3.0 0.00 0.76 0.00 97 1019.6
20201127060025 40 180 1.0 4.0 0.00 0.76 0.00 97 1019.5
20201127055507 39 71 0.0 7.0 0.00 0.76 0.00 97 1019.3
20201127055009 39 97 2.0 7.0 0.00 0.76 0.00 97 1019.3
20201127054740 39 131 2.0 4.0 0.00 0.76 0.00 97 1019.4
20201127054059 40 109 0.0 3.0 0.00 0.76 0.00 97 1019.2
20201127053559 40 83 1.0 3.0 0.00 0.76 0.00 97 1019.2
20201127053230 40 97 0.0 2.0 0.00 0.76 0.00 97 1019.2
20201127052602 40 355 0.0 2.0 0.00 0.76 0.00 97 1019.1
20201127052100 40 323 0.0 2.0 0.00 0.76 0.00 97 1019.0
20201127051625 40 318 0.0 2.0 0.00 0.76 0.00 97 1018.9
20201127051116 41 320 0.0 2.0 0.00 0.76 0.00 97 1019.0
20201127050552 41 310 0.0 2.0 0.00 0.76 0.00 97 1019.0
20201127050226 41 224 1.0 3.0 0.00 0.76 0.00 97 1018.9
20201127045550 41 213 0.0 3.0 0.00 0.76 0.76 97 1019.0
20201127045105 41 180 1.0 3.0 0.00 0.76 0.76 97 1019.0
20201127044610 41 175 1.0 3.0 0.00 0.76 0.76 97 1018.9
20201127044058 41 178 0.0 3.0 0.00 0.76 0.76 97 1019.0
20201127043549 41 171 1.0 3.0 0.01 0.76 0.76 97 1019.0
20201127043143 41 116 1.0 3.0 0.01 0.76 0.76 97 1018.9
20201127042549 41 131 1.0 3.0 0.01 0.76 0.76 97 1019.0
20201127042050 41 65 1.0 2.0 0.01 0.76 0.76 97 1019.0
20201127041630 41 46 1.0 3.0 0.01 0.76 0.76 97 1019.0
20201127041050 41 94 1.0 4.0 0.01 0.76 0.76 97 1019.1
20201127040602 41 121 2.0 4.0 0.01 0.76 0.76 97 1019.1
20201127040139 41 120 1.0 2.0 0.01 0.76 0.76 97 1019.0
20201127035551 42 9 0.0 2.0 0.01 0.76 0.76 97 1019.0
20201127035049 41 9 0.0 2.0 0.01 0.76 0.76 97 1018.9
20201127034651 42 9 1.0 2.0 0.01 0.76 0.76 97 1018.8
20201127034050 42 355 0.0 2.0 0.01 0.76 0.76 98 1018.9
20201127033547 42 344 0.0 2.0 0.00 0.75 0.75 97 1018.8
20201127033104 42 340 0.0 2.0 0.00 0.75 0.75 98 1018.8
20201127032555 42 327 0.0 1.0 0.00 0.75 0.75 97 1018.7
20201127032047 42 326 0.0 2.0 0.00 0.75 0.75 97 1018.7
20201127031621 42 333 0.0 2.0 0.00 0.75 0.75 97 1018.7
20201127031052 42 333 0.0 2.0 0.00 0.75 0.75 98 1018.7
20201127030550 42 332 0.0 2.0 0.00 0.75 0.75 97 1018.7
20201127030106 42 330 0.0 2.0 0.00 0.75 0.75 97 1018.6
20201127025550 42 294 0.0 2.0 0.00 0.75 0.75 97 1018.6
20201127025111 42 290 0.0 2.0 0.00 0.75 0.75 97 1018.6
20201127024608 42 300 0.0 1.0 0.00 0.75 0.75 97 1018.5
20201127024045 42 300 0.0 2.0 0.00 0.75 0.75 97 1018.6
20201127023545 42 300 0.0 2.0 0.00 0.75 0.75 97 1018.6
20201127023050 42 296 0.0 2.0 0.00 0.75 0.75 97 1018.8
20201127022545 43 297 0.0 1.0 0.00 0.75 0.75 97 1018.7
20201127022044 43 294 0.0 1.0 0.00 0.75 0.75 97 1018.8
20201127021702 43 294 0.0 1.0 0.00 0.75 0.75 97 1018.9
20201127021044 43 294 0.0 1.0 0.00 0.75 0.75 97 1018.7
20201127020559 43 282 0.0 2.0 0.00 0.75 0.75 97 1018.8
20201127020231 43 264 0.0 3.0 0.00 0.75 0.75 97 1018.8
20201127015548 43 265 0.0 3.0 0.00 0.75 0.75 97 1018.9
20201127015044 43 249 0.0 3.0 0.00 0.75 0.75 97 1018.9
20201127014623 43 230 1.0 4.0 0.00 0.75 0.75 97 1018.8
20201127014044 43 229 1.0 4.0 0.00 0.75 0.75 97 1018.7
20201127013543 43 178 1.0 3.0 0.00 0.75 0.75 97 1018.6
20201127013129 43 198 1.0 2.0 0.00 0.75 0.75 97 1018.7
20201127012550 43 215 1.0 2.0 0.00 0.75 0.75 97 1018.7
20201127012042 43 217 0.0 2.0 0.00 0.75 0.75 97 1018.6
20201127011606 43 157 0.0 2.0 0.00 0.75 0.75 97 1018.5
20201127011055 43 184 0.0 2.0 0.00 0.75 0.75 97 1018.5
20201127010542 43 144 1.0 2.0 0.00 0.75 0.75 97 1018.4
20201127010128 43 143 0.0 2.0 0.00 0.75 0.75 97 1018.5
20201127005543 44 124 1.0 2.0 0.00 0.75 0.75 97 1018.4
20201127005059 44 120 0.0 2.0 0.00 0.75 0.75 97 1018.4
20201127004558 44 105 0.0 3.0 0.00 0.75 0.75 97 1018.3
20201127004041 44 106 0.0 3.0 0.00 0.75 0.75 97 1018.3
20201127003549 44 111 1.0 3.0 0.00 0.75 0.75 97 1018.3
20201127003143 44 28 0.0 2.0 0.00 0.75 0.75 97 1018.3
20201127002541 44 348 0.0 2.0 0.00 0.75 0.75 97 1018.3
20201127002049 44 327 0.0 1.0 0.00 0.75 0.75 97 1018.3
20201127001652 44 319 0.0 1.0 0.00 0.75 0.75 97 1018.1
20201127001045 44 320 0.0 2.0 0.00 0.75 0.75 97 1018.0
20201127000546 45 321 0.0 2.0 0.00 0.75 0.75 97 1018.1
20201127000132 45 324 1.0 2.0 0.00 0.75 0.75 97 1018.1
20201126235539 45 355 0.0 2.0 0.00 0.75 0.75 97 1018.0
20201126235040 45 355 0.0 2.0 0.00 0.75 0.75 97 1017.9
20201126234703 45 21 0.0 2.0 0.00 0.75 0.75 97 1017.8
20201126234039 45 20 0.0 2.0 0.00 0.75 0.75 97 1017.7
20201126233540 45 19 0.0 1.0 0.00 0.75 0.75 97 1017.7
20201126233113 45 24 0.0 1.0 0.00 0.75 0.75 97 1017.8
20201126232552 46 24 0.0 1.0 0.00 0.75 0.75 97 1017.8
20201126232046 46 24 0.0 1.0 0.00 0.75 0.75 97 1017.7
20201126231628 46 24 0.0 2.0 0.00 0.75 0.75 97 1017.8
20201126231044 46 18 0.0 2.0 0.00 0.75 0.75 97 1017.8
20201126230545 46 355 1.0 2.0 0.00 0.75 0.75 97 1017.7
20201126230129 46 351 0.0 2.0 0.00 0.75 0.75 97 1017.8
20201126225543 46 350 0.0 2.0 0.00 0.75 0.75 97 1017.7
20201126225040 46 350 0.0 2.0 0.00 0.75 0.75 97 1017.6
20201126224601 46 188 0.0 3.0 0.00 0.75 0.75 97 1017.5
20201126224038 46 215 0.0 3.0 0.00 0.75 0.75 97 1017.5
20201126223540 46 342 1.0 2.0 0.00 0.75 0.75 97 1017.4
20201126223111 46 10 0.0 1.0 0.00 0.75 0.75 97 1017.4
20201126222540 47 12 0.0 1.0 0.00 0.75 0.75 97 1017.5
20201126222040 47 13 0.0 2.0 0.00 0.75 0.75 97 1017.5
20201126221610 47 13 0.0 2.0 0.00 0.75 0.75 97 1017.3
20201126221040 47 33 1.0 2.0 0.00 0.75 0.75 97 1017.4
20201126220554 47 70 0.0 4.0 0.00 0.75 0.75 97 1017.3
20201126220111 47 65 2.0 4.0 0.00 0.75 0.75 97 1017.3
20201126215539 48 45 2.0 4.0 0.00 0.75 0.75 97 1017.2
20201126215036 48 360 0.0 3.0 0.00 0.75 0.75 97 1017.1
20201126214624 48 239 0.0 3.0 0.00 0.75 0.75 97 1017.0
20201126214111 48 246 0.0 3.0 0.00 0.75 0.75 97 1016.8
20201126213541 48 238 1.0 3.0 0.00 0.75 0.75 97 1016.8
20201126213119 48 186 0.0 2.0 0.00 0.75 0.75 96 1016.7
20201126212542 48 60 0.0 3.0 0.00 0.75 0.75 97 1016.8
20201126212037 48 57 0.0 3.0 0.00 0.75 0.75 97 1016.8
20201126211600 49 113 0.0 2.0 0.00 0.75 0.75 97 1016.6
20201126211039 49 165 0.0 2.0 0.00 0.75 0.75 97 1016.5
20201126210539 49 202 0.0 2.0 0.00 0.75 0.75 96 1016.5
20201126210102 49 97 0.0 2.0 0.00 0.75 0.75 96 1016.4
20201126205534 49 78 0.0 3.0 0.00 0.75 0.75 96 1016.3
20201126205041 49 33 0.0 3.0 0.00 0.75 0.75 96 1016.3
20201126204628 49 31 1.0 3.0 0.00 0.75 0.75 96 1016.2
20201126204037 49 119 1.0 3.0 0.00 0.75 0.75 96 1016.0
20201126203534 49 89 1.0 3.0 0.00 0.75 0.75 96 1016.0
20201126203119 49 62 1.0 3.0 0.00 0.75 0.75 96 1015.9
20201126202535 50 73 1.0 3.0 0.00 0.75 0.75 96 1015.9
20201126202039 50 80 2.0 3.0 0.00 0.75 0.75 96 1016.0
20201126201620 50 86 0.0 5.0 0.00 0.75 0.75 96 1016.0
20201126201033 50 79 1.0 5.0 0.00 0.75 0.75 96 1015.8
20201126200530 50 107 1.0 3.0 0.00 0.75 0.75 96 1015.8
20201126200052 50 13 0.0 2.0 0.00 0.75 0.75 96 1015.8
20201126195530 50 355 0.0 2.0 0.00 0.75 0.75 96 1015.8
20201126195029 50 57 1.0 3.0 0.00 0.75 0.75 96 1015.8
20201126194606 50 115 1.0 3.0 0.00 0.75 0.75 96 1015.6
20201126194028 49 80 0.0 2.0 0.00 0.75 0.75 96 1015.7
20201126193530 49 53 0.0 1.0 0.00 0.75 0.75 96 1015.6
20201126193114 49 51 0.0 2.0 0.00 0.75 0.75 96 1015.6
20201126192527 49 53 0.0 2.0 0.00 0.75 0.75 96 1015.5
20201126192040 49 58 1.0 3.0 0.00 0.75 0.75 95 1015.5
20201126191602 49 61 1.0 3.0 0.00 0.75 0.75 96 1015.3
20201126191033 49 63 1.0 3.0 0.00 0.75 0.75 96 1015.6
20201126190522 49 30 1.0 3.0 0.00 0.75 0.75 95 1015.6
20201126190045 49 43 1.0 3.0 0.00 0.75 0.75 95 1015.7
20201126185531 49 54 0.0 2.0 0.00 0.75 0.75 96 1015.7
20201126185023 48 63 0.0 2.0 0.01 0.75 0.75 96 1015.8
20201126184608 48 66 0.0 2.0 0.01 0.75 0.75 96 1015.8
20201126184031 48 74 0.0 2.0 0.03 0.75 0.75 96 1015.8
20201126183519 47 86 1.0 2.0 0.03 0.75 0.75 96 1015.7
20201126183025 47 55 0.0 2.0 0.03 0.75 0.75 96 1016.0
20201126182526 47 26 1.0 2.0 0.03 0.75 0.75 96 1016.0
20201126182037 47 360 1.0 2.0 0.03 0.75 0.75 96 1016.1
20201126181534 47 360 0.0 2.0 0.03 0.75 0.75 96 1016.2
20201126181023 47 13 0.0 2.0 0.03 0.75 0.75 96 1016.1
20201126180533 47 13 0.0 2.0 0.03 0.75 0.75 96 1016.1
20201126180040 47 13 0.0 2.0 0.03 0.75 0.75 96 1016.1
20201126175515 47 355 0.0 2.0 0.03 0.75 0.75 96 1016.1
20201126175033 47 349 0.0 2.0 0.02 0.74 0.74 96 1016.2
20201126174516 47 340 0.0 2.0 0.01 0.73 0.73 96 1016.2
20201126174028 47 298 0.0 2.0 0.00 0.72 0.72 96 1016.4
20201126173525 47 231 0.0 2.0 0.00 0.72 0.72 96 1016.4
20201126173023 46 175 0.0 2.0 0.00 0.72 0.72 96 1016.5
20201126172512 46 119 0.0 2.0 0.00 0.72 0.72 96 1016.4
20201126172020 46 346 0.0 2.0 0.00 0.72 0.72 96 1016.6
20201126171521 46 355 0.0 2.0 0.00 0.72 0.72 96 1016.6
20201126171022 46 355 0.0 2.0 0.00 0.72 0.72 96 1016.5
20201126170518 46 11 0.0 3.0 0.00 0.72 0.72 96 1016.5
20201126170026 46 11 1.0 3.0 0.00 0.72 0.72 95 1016.6
20201126165512 46 26 0.0 2.0 0.01 0.72 0.72 96 1016.8
20201126165016 46 69 0.0 2.0 0.01 0.72 0.72 96 1017.0
20201126164536 46 40 0.0 2.0 0.01 0.72 0.72 95 1017.1
20201126164012 46 17 0.0 2.0 0.03 0.72 0.72 96 1017.2
20201126163518 46 15 1.0 2.0 0.03 0.72 0.72 96 1017.4
20201126163015 46 21 1.0 2.0 0.03 0.72 0.72 96 1017.4
20201126162511 46 44 0.0 2.0 0.04 0.72 0.72 96 1017.5
20201126162007 46 68 0.0 2.0 0.04 0.72 0.72 96 1017.6
20201126161100 45 106 1.0 3.0 0.05 0.72 0.72 96 1017.9
20201126160558 45 355 0.0 1.0 0.05 0.72 0.72 96 1018.1
20201126160212 45 355 0.0 1.0 0.07 0.72 0.72 96 1018.1
20201126155600 44 355 0.0 4.0 0.06 0.71 0.71 96 1018.2
20201126155107 44 350 0.0 6.0 0.07 0.71 0.71 96 1018.3
20201126154751 44 313 2.0 6.0 0.08 0.71 0.71 96 1018.5
20201126154053 44 36 0.0 4.0 0.08 0.69 0.69 96 1018.6
20201126153557 44 36 1.0 4.0 0.08 0.69 0.69 96 1018.6
20201126153231 43 27 0.0 2.0 0.09 0.69 0.69 96 1018.7
20201126152554 43 24 1.0 3.0 0.08 0.68 0.68 96 1018.7
20201126152056 43 355 1.0 3.0 0.09 0.68 0.68 96 1018.9
20201126151735 43 328 0.0 3.0 0.08 0.67 0.67 96 1018.9
20201126151120 43 341 0.0 2.0 0.09 0.67 0.67 96 1019.0
20201126150557 43 341 0.0 2.0 0.10 0.67 0.67 96 1019.0
20201126150128 43 38 0.0 1.0 0.08 0.65 0.65 96 1019.2
20201126145547 43 44 0.0 1.0 0.09 0.65 0.65 96 1019.2
20201126145048 42 20 0.0 3.0 0.08 0.64 0.64 96 1019.3
20201126144624 42 23 1.0 3.0 0.07 0.63 0.63 96 1019.3
20201126144048 42 10 0.0 3.0 0.05 0.61 0.61 96 1019.5
20201126143544 42 13 1.0 3.0 0.05 0.61 0.61 96 1019.4
20201126143134 42 329 0.0 2.0 0.04 0.60 0.60 96 1019.5
20201126142543 42 323 1.0 3.0 0.04 0.60 0.60 96 1019.8
20201126142045 42 328 0.0 3.0 0.03 0.59 0.59 96 1019.7
20201126141650 42 331 1.0 3.0 0.04 0.59 0.59 96 1019.7
20201126141044 42 19 0.0 3.0 0.03 0.57 0.57 96 1019.7
20201126140542 42 11 0.0 3.0 0.02 0.56 0.56 96 1019.7
20201126140152 42 11 1.0 3.0 0.02 0.56 0.56 96 1019.6
20201126135547 42 11 0.0 1.0 0.01 0.56 0.56 96 1019.8
20201126135040 42 11 0.0 3.0 0.01 0.56 0.56 96 1019.9
20201126134617 42 11 1.0 3.0 0.01 0.56 0.56 96 1019.9
20201126134052 41 10 0.0 2.0 0.01 0.56 0.56 96 1020.1
20201126133538 41 9 0.0 2.0 0.02 0.56 0.56 96 1020.0
20201126133130 41 9 1.0 2.0 0.02 0.56 0.56 96 1020.0
20201126132541 41 9 1.0 3.0 0.03 0.56 0.56 96 1020.1
20201126132040 41 5 0.0 3.0 0.03 0.56 0.56 96 1020.2
20201126131615 41 355 1.0 3.0 0.03 0.55 0.55 96 1020.3
20201126131057 41 349 0.0 2.0 0.04 0.55 0.55 96 1020.3
20201126130540 41 349 0.0 2.0 0.05 0.55 0.55 96 1020.4
20201126130051 41 349 0.0 2.0 0.06 0.55 0.55 96 1020.4
20201126125534 41 349 0.0 2.0 0.09 0.55 0.55 96 1020.4
20201126125031 41 327 0.0 3.0 0.11 0.55 0.55 96 1020.4
20201126124612 40 327 0.0 3.0 0.12 0.55 0.55 96 1020.7
20201126124035 40 346 1.0 3.0 0.15 0.55 0.55 96 1020.5
20201126123533 40 332 0.0 2.0 0.16 0.54 0.54 96 1020.6
20201126123042 40 338 0.0 2.0 0.17 0.54 0.54 96 1020.4
20201126122528 40 292 0.0 2.0 0.17 0.53 0.53 96 1020.7
20201126122033 40 213 0.0 1.0 0.19 0.53 0.53 96 1020.7
20201126121608 40 153 0.0 1.0 0.21 0.52 0.52 96 1020.6
20201126121027 40 109 0.0 1.0 0.23 0.51 0.51 95 1020.6
20201126120532 40 117 0.0 1.0 0.24 0.50 0.50 95 1020.7
20201126120103 40 121 0.0 1.0 0.23 0.48 0.48 95 1020.6
20201126115533 40 122 0.0 1.0 0.23 0.46 0.46 95 1020.7
20201126115026 40 124 0.0 1.0 0.23 0.44 0.44 95 1020.8
20201126114559 40 129 0.0 1.0 0.24 0.43 0.43 95 1021.0
20201126114023 40 136 0.0 2.0 0.22 0.40 0.40 95 1021.0
20201126113527 40 114 0.0 2.0 0.21 0.38 0.38 95 1021.0
20201126113046 40 98 0.0 3.0 0.22 0.37 0.37 95 1021.1
20201126112526 40 355 0.0 5.0 0.22 0.35 0.35 95 1021.1
20201126112023 39 319 0.0 5.0 0.22 0.33 0.33 95 1021.3
20201126111535 39 292 2.0 5.0 0.21 0.31 0.31 95 1021.1
20201126111026 39 333 0.0 2.0 0.19 0.28 0.28 95 1021.1
20201126110534 39 346 0.0 3.0 0.18 0.26 0.26 95 1021.2
20201126110113 39 346 0.0 3.0 0.16 0.24 0.24 95 1021.1
20201126105528 39 329 1.0 2.0 0.16 0.23 0.23 95 1021.0
20201126105029 39 310 0.0 1.0 0.13 0.20 0.20 95 1021.2
20201126104548 39 307 0.0 2.0 0.13 0.19 0.19 95 1021.0
20201126104019 39 237 0.0 2.0 0.13 0.18 0.18 95 1021.1
20201126103530 39 183 0.0 3.0 0.12 0.17 0.17 95 1021.0
20201126103034 39 184 1.0 4.0 0.11 0.15 0.15 94 1021.1
20201126102518 39 300 0.0 4.0 0.08 0.12 0.12 94 1021.3
20201126102023 39 264 1.0 4.0 0.06 0.10 0.10 94 1021.5
20201126101602 39 5 0.0 1.0 0.06 0.10 0.10 94 1021.4
20201126101023 38 5 0.0 1.0 0.06 0.09 0.09 94 1021.2
20201126100519 39 355 0.0 1.0 0.05 0.08 0.08 94 1021.4
20201126100018 39 355 0.0 1.0 0.05 0.08 0.08 94 1021.7
20201126095514 39 355 0.0 1.0 0.04 0.07 0.07 94 1021.8
20201126095022 39 355 0.0 1.0 0.04 0.07 0.07 94 1021.8
20201126094537 39 355 0.0 1.0 0.03 0.06 0.06 94 1021.9
20201126094012 39 355 0.0 2.0 0.03 0.05 0.05 94 1022.0
20201126093514 39 355 1.0 2.0 0.03 0.05 0.05 94 1022.0
20201126093020 39 344 1.0 2.0 0.02 0.04 0.04 94 1022.0
20201126092513 39 344 0.0 2.0 0.02 0.04 0.04 93 1022.3
20201126092012 39 344 0.0 2.0 0.02 0.04 0.04 94 1022.3
20201126091532 39 344 1.0 2.0 0.02 0.04 0.04 93 1022.5
20201126091011 39 300 1.0 3.0 0.01 0.03 0.03 93 1022.6
20201126090515 39 308 0.0 3.0 0.01 0.03 0.03 93 1022.4
20201126090046 38 20 1.0 5.0 0.01 0.03 0.03 93 1022.5
20201126085521 38 263 1.0 5.0 0.01 0.03 0.03 93 1022.6
20201126085015 38 48 2.0 5.0 0.01 0.03 0.03 93 1022.4
20201126084512 38 35 2.0 6.0 0.01 0.03 0.03 93 1022.4
20201126084021 38 287 2.0 6.0 0.00 0.02 0.02 93 1023.0
20201126083505 38 234 0.0 3.0 0.00 0.02 0.02 93 1022.9
20201126083035 38 34 1.0 3.0 0.01 0.02 0.02 93 1022.9
20201126082504 38 333 0.0 2.0 0.01 0.02 0.02 93 1023.1
20201126082008 38 110 0.0 3.0 0.01 0.02 0.02 93 1023.0